| time (UTC) | temp F | wind direction | speed MPH | gust MPH | rain 1hr in | rain 24hr in | rain mn in | humidity % | barometer mb |
| 20260506174704 | 65 | 244 | 0.0 | 0.0 | 0.05 | 0.05 | 0.05 | 86 | 1005.1 |
| 20260506174204 | 65 | 226 | 0.0 | 2.0 | 0.05 | 0.05 | 0.05 | 85 | 1004.9 |
| 20260506173704 | 65 | 210 | 0.0 | 1.0 | 0.05 | 0.05 | 0.05 | 85 | 1004.9 |
| 20260506172703 | 66 | 201 | 1.0 | 5.0 | 0.04 | 0.04 | 0.04 | 84 | 1005.4 |
| 20260506172203 | 66 | 165 | 0.0 | 0.0 | 0.03 | 0.03 | 0.03 | 83 | 1005.4 |
| 20260506171704 | 66 | 165 | 0.0 | 0.0 | 0.02 | 0.02 | 0.02 | 82 | 1005.5 |
| 20260506171204 | 66 | 165 | 0.0 | 2.0 | 0.01 | 0.01 | 0.01 | 82 | 1005.8 |
| 20260506170704 | 66 | 211 | 2.0 | 5.0 | 0.00 | 0.00 | 0.00 | 81 | 1006.0 |
| 20260506165203 | 67 | 175 | 0.0 | 0.0 | 0.00 | 0.00 | 0.00 | 79 | 1005.8 |
| 20260506164703 | 67 | 175 | 0.0 | 0.0 | 0.00 | 0.00 | 0.00 | 78 | 1005.7 |
| 20260506164204 | 67 | 175 | 0.0 | 0.0 | 0.00 | 0.00 | 0.00 | 78 | 1005.7 |
| 20260506162703 | 67 | 96 | 0.0 | 1.0 | 0.00 | 0.00 | 0.00 | 77 | 1005.7 |
| 20260506162203 | 67 | 134 | 0.0 | 6.0 | 0.00 | 0.00 | 0.00 | 77 | 1005.7 |
| 20260506161704 | 67 | 180 | 2.0 | 3.0 | 0.00 | 0.00 | 0.00 | 76 | 1005.8 |
| 20260506161203 | 67 | 250 | 0.0 | 2.0 | 0.00 | 0.00 | 0.00 | 76 | 1005.9 |
| 20260506160704 | 67 | 217 | 1.0 | 5.0 | 0.00 | 0.00 | 0.00 | 76 | 1006.0 |
| 20260506160204 | 67 | 266 | 0.0 | 2.0 | 0.00 | 0.00 | 0.00 | 75 | 1006.1 |
| 20260506155703 | 66 | 208 | 0.0 | 2.0 | 0.00 | 0.00 | 0.00 | 76 | 1006.1 |
| 20260506155203 | 66 | 198 | 1.0 | 2.0 | 0.00 | 0.00 | 0.00 | 76 | 1006.2 |
| 20260506154704 | 66 | 170 | 2.0 | 5.0 | 0.00 | 0.00 | 0.00 | 76 | 1006.3 |
| 20260506154204 | 66 | 229 | 2.0 | 5.0 | 0.00 | 0.00 | 0.00 | 77 | 1006.5 |
| 20260506153203 | 65 | 186 | 1.0 | 6.0 | 0.00 | 0.00 | 0.00 | 77 | 1006.6 |
| 20260506152704 | 66 | 251 | 1.0 | 5.0 | 0.00 | 0.00 | 0.00 | 77 | 1006.6 |
| 20260506152204 | 66 | 210 | 2.0 | 3.0 | 0.00 | 0.00 | 0.00 | 77 | 1006.8 |
| 20260506151704 | 65 | 243 | 2.0 | 3.0 | 0.00 | 0.00 | 0.00 | 77 | 1006.9 |
| 20260506151203 | 66 | 259 | 1.0 | 3.0 | 0.00 | 0.00 | 0.00 | 77 | 1007.0 |
| 20260506145704 | 65 | 225 | 2.0 | 3.0 | 0.00 | 0.00 | 0.00 | 77 | 1007.0 |
| 20260506145204 | 65 | 192 | 1.0 | 3.0 | 0.00 | 0.00 | 0.00 | 77 | 1007.1 |
| 20260506144204 | 65 | 243 | 0.0 | 2.0 | 0.00 | 0.00 | 0.00 | 78 | 1007.0 |
| 20260506143703 | 65 | 195 | 1.0 | 5.0 | 0.00 | 0.00 | 0.00 | 78 | 1007.1 |
| 20260506143203 | 65 | 222 | 2.0 | 3.0 | 0.00 | 0.00 | 0.00 | 78 | 1007.1 |
| 20260506142704 | 65 | 216 | 2.0 | 5.0 | 0.00 | 0.00 | 0.00 | 78 | 1007.1 |
| 20260506142204 | 64 | 228 | 2.0 | 6.0 | 0.00 | 0.00 | 0.00 | 78 | 1007.2 |
| 20260506141704 | 65 | 176 | 2.0 | 5.0 | 0.00 | 0.00 | 0.00 | 78 | 1007.1 |
| 20260506141203 | 64 | 194 | 2.0 | 5.0 | 0.00 | 0.00 | 0.00 | 78 | 1007.0 |
| 20260506140703 | 64 | 96 | 2.0 | 5.0 | 0.00 | 0.00 | 0.00 | 78 | 1007.0 |
| 20260506140203 | 64 | 206 | 2.0 | 5.0 | 0.00 | 0.00 | 0.00 | 78 | 1007.1 |
| 20260506135704 | 64 | 211 | 2.0 | 3.0 | 0.00 | 0.00 | 0.00 | 78 | 1007.2 |
| 20260506135204 | 64 | 253 | 2.0 | 3.0 | 0.00 | 0.00 | 0.00 | 79 | 1006.9 |
| 20260506134703 | 64 | 257 | 1.0 | 6.0 | 0.00 | 0.00 | 0.00 | 79 | 1006.9 |
| 20260506134203 | 64 | 173 | 2.0 | 5.0 | 0.00 | 0.00 | 0.00 | 80 | 1006.8 |
| 20260506133704 | 63 | 257 | 1.0 | 5.0 | 0.00 | 0.00 | 0.00 | 80 | 1006.9 |
| 20260506133204 | 63 | 239 | 0.0 | 3.0 | 0.00 | 0.00 | 0.00 | 80 | 1006.9 |
| 20260506132203 | 63 | 233 | 2.0 | 7.0 | 0.00 | 0.00 | 0.00 | 81 | 1006.8 |
| 20260506131704 | 63 | 181 | 0.0 | 2.0 | 0.00 | 0.00 | 0.00 | 81 | 1006.8 |
| 20260506131204 | 63 | 225 | 1.0 | 3.0 | 0.00 | 0.00 | 0.00 | 81 | 1006.9 |
| 20260506130704 | 63 | 224 | 0.0 | 0.0 | 0.00 | 0.00 | 0.00 | 82 | 1007.1 |
| 20260506125703 | 62 | 224 | 0.0 | 0.0 | 0.00 | 0.00 | 0.00 | 82 | 1007.0 |
| 20260506125204 | 62 | 224 | 0.0 | 2.0 | 0.00 | 0.00 | 0.00 | 82 | 1007.1 |
| 20260506124704 | 62 | 225 | 1.0 | 3.0 | 0.00 | 0.00 | 0.00 | 83 | 1007.1 |
| 20260506124205 | 61 | 141 | 0.0 | 1.0 | 0.00 | 0.00 | 0.00 | 83 | 1007.3 |
| 20260506123203 | 61 | 61 | 0.0 | 0.0 | 0.00 | 0.00 | 0.00 | 83 | 1007.4 |
| 20260506122704 | 61 | 61 | 0.0 | 0.0 | 0.00 | 0.00 | 0.00 | 84 | 1007.5 |
| 20260506121703 | 60 | 61 | 0.0 | 0.0 | 0.00 | 0.00 | 0.00 | 84 | 1007.5 |
| 20260506121203 | 60 | 61 | 0.0 | 0.0 | 0.00 | 0.00 | 0.00 | 85 | 1007.5 |
| 20260506120704 | 60 | 61 | 0.0 | 0.0 | 0.00 | 0.00 | 0.00 | 85 | 1007.5 |
| 20260506115704 | 60 | 61 | 0.0 | 0.0 | 0.00 | 0.00 | 0.00 | 85 | 1007.5 |
| 20260506114703 | 59 | 61 | 0.0 | 0.0 | 0.00 | 0.00 | 0.00 | 86 | 1007.5 |
| 20260506114204 | 59 | 61 | 0.0 | 0.0 | 0.00 | 0.00 | 0.00 | 86 | 1007.5 |
| 20260506113704 | 59 | 61 | 0.0 | 0.0 | 0.00 | 0.00 | 0.00 | 86 | 1007.5 |
| 20260506113203 | 59 | 61 | 0.0 | 0.0 | 0.00 | 0.00 | 0.00 | 86 | 1007.4 |
| 20260506112703 | 59 | 61 | 0.0 | 0.0 | 0.00 | 0.00 | 0.00 | 87 | 1007.5 |
| 20260506111704 | 58 | 61 | 0.0 | 0.0 | 0.00 | 0.00 | 0.00 | 87 | 1007.4 |
| 20260506111204 | 58 | 61 | 0.0 | 2.0 | 0.00 | 0.00 | 0.00 | 87 | 1007.4 |
| 20260506110703 | 58 | 44 | 0.0 | 0.0 | 0.00 | 0.00 | 0.00 | 87 | 1007.5 |
| 20260506110205 | 57 | 44 | 0.0 | 0.0 | 0.00 | 0.00 | 0.00 | 87 | 1007.4 |
| 20260506105704 | 57 | 44 | 0.0 | 0.0 | 0.00 | 0.00 | 0.00 | 87 | 1007.7 |
| 20260506104703 | 56 | 44 | 0.0 | 0.0 | 0.00 | 0.00 | 0.00 | 87 | 1007.7 |
| 20260506104203 | 56 | 44 | 0.0 | 0.0 | 0.00 | 0.00 | 0.00 | 87 | 1007.8 |
| 20260506103703 | 56 | 44 | 0.0 | 1.0 | 0.00 | 0.00 | 0.00 | 87 | 1007.6 |
| 20260506102704 | 55 | 44 | 0.0 | 0.0 | 0.00 | 0.00 | 0.00 | 87 | 1007.7 |
| 20260506102204 | 55 | 44 | 0.0 | 0.0 | 0.00 | 0.00 | 0.00 | 86 | 1007.6 |
| 20260506101703 | 55 | 44 | 0.0 | 0.0 | 0.00 | 0.00 | 0.00 | 86 | 1007.5 |
| 20260506101203 | 55 | 44 | 0.0 | 0.0 | 0.00 | 0.00 | 0.00 | 86 | 1007.3 |
| 20260506100704 | 55 | 44 | 0.0 | 0.0 | 0.00 | 0.00 | 0.00 | 86 | 1007.3 |
| 20260506095703 | 55 | 44 | 0.0 | 0.0 | 0.00 | 0.00 | 0.00 | 85 | 1007.4 |
| 20260506095204 | 55 | 44 | 0.0 | 0.0 | 0.00 | 0.00 | 0.00 | 85 | 1007.3 |
| 20260506094704 | 55 | 44 | 0.0 | 0.0 | 0.00 | 0.00 | 0.00 | 85 | 1007.3 |
| 20260506094204 | 55 | 44 | 0.0 | 0.0 | 0.00 | 0.00 | 0.00 | 85 | 1007.2 |
| 20260506093203 | 55 | 44 | 0.0 | 0.0 | 0.00 | 0.00 | 0.00 | 84 | 1007.3 |
| 20260506092704 | 55 | 44 | 0.0 | 0.0 | 0.00 | 0.00 | 0.00 | 84 | 1007.4 |
| 20260506092204 | 55 | 44 | 0.0 | 0.0 | 0.00 | 0.00 | 0.00 | 84 | 1007.4 |
| 20260506091704 | 55 | 44 | 0.0 | 0.0 | 0.00 | 0.00 | 0.00 | 84 | 1007.2 |
| 20260506091203 | 55 | 44 | 0.0 | 0.0 | 0.00 | 0.00 | 0.00 | 84 | 1007.2 |
| 20260506090205 | 55 | 44 | 0.0 | 0.0 | 0.00 | 0.00 | 0.00 | 84 | 1007.3 |
| 20260506085704 | 55 | 44 | 0.0 | 0.0 | 0.00 | 0.00 | 0.00 | 84 | 1007.4 |
| 20260506085204 | 55 | 44 | 0.0 | 1.0 | 0.00 | 0.00 | 0.00 | 84 | 1007.3 |
| 20260506084703 | 56 | 3 | 0.0 | 0.0 | 0.00 | 0.00 | 0.00 | 83 | 1007.3 |
| 20260506084203 | 56 | 3 | 0.0 | 0.0 | 0.00 | 0.00 | 0.00 | 83 | 1007.3 |
| 20260506083203 | 56 | 3 | 0.0 | 2.0 | 0.00 | 0.00 | 0.00 | 83 | 1007.4 |
| 20260506082705 | 56 | 23 | 0.0 | 0.0 | 0.00 | 0.00 | 0.00 | 83 | 1007.4 |
| 20260506082203 | 56 | 42 | 0.0 | 1.0 | 0.00 | 0.00 | 0.00 | 83 | 1007.3 |
| 20260506081703 | 56 | 3 | 0.0 | 2.0 | 0.00 | 0.00 | 0.00 | 83 | 1007.4 |
| 20260506081203 | 56 | 359 | 0.0 | 0.0 | 0.00 | 0.00 | 0.00 | 82 | 1007.3 |
| 20260506080703 | 56 | 359 | 0.0 | 0.0 | 0.00 | 0.00 | 0.00 | 82 | 1007.2 |
| 20260506080204 | 57 | 359 | 0.0 | 0.0 | 0.00 | 0.00 | 0.00 | 82 | 1007.4 |
| 20260506073204 | 58 | 45 | 0.0 | 0.0 | 0.00 | 0.00 | 0.00 | 80 | 1007.2 |
| 20260506072703 | 58 | 45 | 0.0 | 0.0 | 0.00 | 0.00 | 0.00 | 80 | 1007.2 |
| 20260506072204 | 58 | 45 | 0.0 | 0.0 | 0.00 | 0.00 | 0.00 | 80 | 1007.3 |
| 20260506071703 | 58 | 45 | 0.0 | 0.0 | 0.00 | 0.00 | 0.00 | 79 | 1007.3 |
| 20260506071204 | 58 | 45 | 0.0 | 0.0 | 0.00 | 0.00 | 0.00 | 79 | 1007.3 |
| 20260506070704 | 59 | 45 | 0.0 | 1.0 | 0.00 | 0.00 | 0.00 | 78 | 1007.2 |
| 20260506062204 | 61 | 3 | 1.0 | 2.0 | 0.00 | 0.00 | 0.00 | 75 | 1007.0 |
| 20260506061704 | 61 | 0 | 1.0 | 1.0 | 0.00 | 0.00 | 0.00 | 75 | 1006.9 |
| 20260506061203 | 61 | 10 | 0.0 | 0.0 | 0.00 | 0.00 | 0.00 | 74 | 1006.9 |
| 20260506060204 | 62 | 29 | 1.0 | 2.0 | 0.00 | 0.00 | 0.00 | 74 | 1007.0 |
| 20260506051204 | 64 | 253 | 0.0 | 3.0 | 0.00 | 0.00 | 0.00 | 69 | 1007.1 |
| 20260506050203 | 64 | 155 | 1.0 | 3.0 | 0.00 | 0.00 | 0.00 | 69 | 1007.1 |
| 20260506044703 | 64 | 220 | 1.0 | 2.0 | 0.00 | 0.00 | 0.00 | 69 | 1007.2 |
| 20260506044204 | 64 | 219 | 0.0 | 1.0 | 0.00 | 0.00 | 0.00 | 69 | 1007.1 |
| 20260506043203 | 64 | 250 | 0.0 | 1.0 | 0.00 | 0.00 | 0.00 | 68 | 1007.1 |
| 20260506042703 | 64 | 270 | 0.0 | 2.0 | 0.00 | 0.00 | 0.00 | 68 | 1007.1 |
| 20260506042203 | 64 | 213 | 2.0 | 2.0 | 0.00 | 0.00 | 0.00 | 68 | 1007.1 |
| 20260506041704 | 64 | 230 | 0.0 | 0.0 | 0.00 | 0.00 | 0.00 | 68 | 1007.1 |
| 20260506041203 | 64 | 230 | 0.0 | 1.0 | 0.00 | 0.00 | 0.00 | 68 | 1007.2 |
| 20260506040703 | 64 | 217 | 0.0 | 1.0 | 0.00 | 0.00 | 0.00 | 67 | 1007.2 |
| 20260506040204 | 65 | 216 | 0.0 | 0.0 | 0.00 | 0.00 | 0.00 | 67 | 1007.2 |
| 20260506035204 | 65 | 216 | 0.0 | 2.0 | 0.00 | 0.00 | 0.00 | 67 | 1007.1 |
| 20260506034703 | 65 | 243 | 1.0 | 1.0 | 0.00 | 0.00 | 0.00 | 66 | 1007.2 |
| 20260506033704 | 65 | 171 | 0.0 | 0.0 | 0.00 | 0.00 | 0.00 | 66 | 1007.2 |
| 20260506033204 | 65 | 171 | 0.0 | 0.0 | 0.00 | 0.00 | 0.00 | 66 | 1007.3 |
| 20260506032703 | 65 | 171 | 0.0 | 0.0 | 0.00 | 0.00 | 0.00 | 66 | 1007.2 |
| 20260506031203 | 66 | 237 | 0.0 | 5.0 | 0.00 | 0.00 | 0.00 | 65 | 1007.1 |
| 20260506030703 | 66 | 268 | 0.0 | 0.0 | 0.00 | 0.00 | 0.00 | 65 | 1007.2 |
| 20260506030204 | 66 | 268 | 0.0 | 0.0 | 0.00 | 0.00 | 0.00 | 65 | 1007.1 |
| 20260506025704 | 66 | 268 | 0.0 | 0.0 | 0.00 | 0.00 | 0.00 | 65 | 1007.2 |
| 20260506025203 | 66 | 268 | 0.0 | 1.0 | 0.00 | 0.00 | 0.00 | 64 | 1007.2 |
| 20260506024703 | 66 | 356 | 0.0 | 0.0 | 0.00 | 0.00 | 0.00 | 64 | 1007.0 |
| 20260506024204 | 66 | 328 | 0.0 | 1.0 | 0.00 | 0.00 | 0.00 | 64 | 1007.1 |
| 20260506023704 | 66 | 311 | 0.0 | 1.0 | 0.00 | 0.00 | 0.00 | 64 | 1007.1 |
| 20260506023204 | 67 | 297 | 1.0 | 2.0 | 0.00 | 0.00 | 0.00 | 64 | 1007.1 |
| 20260506022203 | 67 | 143 | 0.0 | 1.0 | 0.00 | 0.00 | 0.00 | 64 | 1006.9 |
| 20260506021703 | 67 | 151 | 1.0 | 3.0 | 0.00 | 0.00 | 0.00 | 63 | 1006.8 |
| 20260506021204 | 67 | 103 | 0.0 | 0.0 | 0.00 | 0.00 | 0.00 | 63 | 1006.9 |
| 20260506020704 | 68 | 103 | 0.0 | 2.0 | 0.00 | 0.00 | 0.00 | 63 | 1006.9 |
| 20260506020203 | 68 | 270 | 0.0 | 0.0 | 0.00 | 0.00 | 0.00 | 62 | 1006.8 |
| 20260506015704 | 68 | 270 | 0.0 | 1.0 | 0.00 | 0.00 | 0.00 | 62 | 1006.8 |
| 20260506015204 | 68 | 264 | 0.0 | 1.0 | 0.00 | 0.00 | 0.00 | 62 | 1006.8 |
| 20260506014704 | 68 | 267 | 0.0 | 0.0 | 0.00 | 0.00 | 0.00 | 61 | 1006.7 |
| 20260506014203 | 68 | 267 | 0.0 | 0.0 | 0.00 | 0.00 | 0.00 | 61 | 1006.7 |
| 20260506013703 | 68 | 267 | 0.0 | 0.0 | 0.00 | 0.00 | 0.00 | 61 | 1006.7 |
| 20260506013204 | 68 | 267 | 0.0 | 0.0 | 0.00 | 0.00 | 0.00 | 60 | 1006.6 |
| 20260506012704 | 69 | 267 | 0.0 | 0.0 | 0.00 | 0.00 | 0.00 | 60 | 1006.6 |
| 20260506011704 | 69 | 267 | 0.0 | 0.0 | 0.00 | 0.00 | 0.00 | 59 | 1006.4 |
| 20260506011204 | 70 | 267 | 0.0 | 0.0 | 0.00 | 0.00 | 0.00 | 58 | 1006.3 |
| 20260506010704 | 70 | 267 | 0.0 | 1.0 | 0.00 | 0.00 | 0.00 | 58 | 1006.4 |
| 20260506010203 | 70 | 288 | 1.0 | 3.0 | 0.00 | 0.00 | 0.00 | 57 | 1006.2 |
| 20260506005703 | 70 | 189 | 0.0 | 2.0 | 0.00 | 0.00 | 0.00 | 57 | 1006.2 |
| 20260506005204 | 70 | 202 | 1.0 | 2.0 | 0.00 | 0.00 | 0.00 | 57 | 1006.1 |
| 20260506004704 | 71 | 287 | 0.0 | 1.0 | 0.00 | 0.00 | 0.00 | 56 | 1006.1 |
| 20260506003704 | 71 | 218 | 1.0 | 2.0 | 0.00 | 0.00 | 0.00 | 56 | 1006.0 |
| 20260506002703 | 71 | 253 | 2.0 | 6.0 | 0.00 | 0.00 | 0.00 | 55 | 1005.6 |
| 20260506002203 | 71 | 198 | 1.0 | 5.0 | 0.00 | 0.00 | 0.00 | 55 | 1005.7 |
| 20260506001704 | 71 | 241 | 1.0 | 6.0 | 0.00 | 0.00 | 0.00 | 54 | 1005.5 |
| 20260506001204 | 71 | 226 | 2.0 | 5.0 | 0.00 | 0.00 | 0.00 | 54 | 1005.4 |
| 20260506000703 | 71 | 288 | 1.0 | 5.0 | 0.00 | 0.00 | 0.00 | 54 | 1005.3 |
| 20260506000204 | 71 | 208 | 3.0 | 6.0 | 0.00 | 0.00 | 0.00 | 53 | 1005.1 |
| 20260505234704 | 72 | 269 | 4.0 | 8.0 | 0.00 | 0.00 | 0.00 | 52 | 1004.8 |
| 20260505234203 | 72 | 219 | 3.0 | 6.0 | 0.00 | 0.00 | 0.00 | 52 | 1004.8 |
| 20260505233703 | 73 | 227 | 3.0 | 10.0 | 0.00 | 0.00 | 0.00 | 52 | 1004.7 |
| 20260505233204 | 73 | 176 | 3.0 | 7.0 | 0.00 | 0.00 | 0.00 | 51 | 1004.6 |
| 20260505232704 | 73 | 246 | 2.0 | 5.0 | 0.00 | 0.00 | 0.00 | 50 | 1004.4 |
| 20260505231204 | 74 | 223 | 3.0 | 8.0 | 0.00 | 0.00 | 0.00 | 49 | 1004.2 |
| 20260505230703 | 74 | 239 | 4.0 | 9.0 | 0.00 | 0.00 | 0.00 | 49 | 1004.1 |
| 20260505230203 | 74 | 260 | 4.0 | 10.0 | 0.00 | 0.00 | 0.00 | 48 | 1004.0 |
| 20260505225704 | 75 | 248 | 4.0 | 6.0 | 0.00 | 0.00 | 0.00 | 48 | 1004.0 |
| 20260505225204 | 75 | 231 | 3.0 | 8.0 | 0.00 | 0.00 | 0.00 | 48 | 1004.0 |
| 20260505224704 | 75 | 267 | 2.0 | 6.0 | 0.00 | 0.00 | 0.00 | 47 | 1004.0 |
| 20260505223704 | 76 | 203 | 5.0 | 7.0 | 0.00 | 0.00 | 0.00 | 46 | 1003.8 |
| 20260505222703 | 77 | 236 | 3.0 | 8.0 | 0.00 | 0.00 | 0.00 | 45 | 1003.6 |
| 20260505222203 | 78 | 242 | 5.0 | 10.0 | 0.00 | 0.00 | 0.00 | 44 | 1003.6 |
| 20260505221704 | 78 | 250 | 4.0 | 9.0 | 0.00 | 0.00 | 0.00 | 44 | 1003.5 |
| 20260505221204 | 78 | 249 | 3.0 | 9.0 | 0.00 | 0.00 | 0.00 | 44 | 1003.4 |
| 20260505220704 | 78 | 240 | 4.0 | 8.0 | 0.00 | 0.00 | 0.00 | 44 | 1003.4 |
| 20260505220203 | 78 | 227 | 5.0 | 8.0 | 0.00 | 0.00 | 0.00 | 43 | 1003.5 |
| 20260505215704 | 78 | 235 | 6.0 | 10.0 | 0.00 | 0.00 | 0.00 | 43 | 1003.5 |
| 20260505215204 | 78 | 254 | 3.0 | 9.0 | 0.00 | 0.00 | 0.00 | 43 | 1003.4 |
| 20260505214703 | 79 | 228 | 5.0 | 9.0 | 0.00 | 0.00 | 0.00 | 43 | 1003.3 |
| 20260505214203 | 79 | 213 | 5.0 | 10.0 | 0.00 | 0.00 | 0.00 | 42 | 1003.2 |
| 20260505213705 | 79 | 241 | 5.0 | 8.0 | 0.00 | 0.00 | 0.00 | 42 | 1003.1 |
| 20260505213204 | 79 | 258 | 5.0 | 10.0 | 0.00 | 0.00 | 0.00 | 42 | 1003.0 |
| 20260505212704 | 80 | 278 | 5.0 | 10.0 | 0.00 | 0.00 | 0.00 | 42 | 1002.8 |
| 20260505212204 | 80 | 264 | 5.0 | 8.0 | 0.00 | 0.00 | 0.00 | 42 | 1002.8 |
| 20260505211704 | 80 | 255 | 5.0 | 9.0 | 0.00 | 0.00 | 0.00 | 41 | 1002.8 |
| 20260505211203 | 80 | 215 | 5.0 | 9.0 | 0.00 | 0.00 | 0.00 | 41 | 1003.0 |
| 20260505210704 | 80 | 253 | 3.0 | 7.0 | 0.00 | 0.00 | 0.00 | 40 | 1003.0 |
| 20260505210204 | 81 | 232 | 4.0 | 10.0 | 0.00 | 0.00 | 0.00 | 40 | 1003.1 |
| 20260505205703 | 81 | 237 | 3.0 | 7.0 | 0.00 | 0.00 | 0.00 | 38 | 1003.0 |
| 20260505204204 | 82 | 258 | 4.0 | 9.0 | 0.00 | 0.00 | 0.00 | 36 | 1002.8 |
| 20260505203704 | 83 | 250 | 3.0 | 8.0 | 0.00 | 0.00 | 0.00 | 36 | 1002.8 |
| 20260505203203 | 83 | 250 | 4.0 | 9.0 | 0.00 | 0.00 | 0.00 | 36 | 1002.8 |
| 20260505202704 | 84 | 259 | 5.0 | 8.0 | 0.00 | 0.00 | 0.00 | 36 | 1002.8 |
| 20260505202203 | 83 | 271 | 5.0 | 7.0 | 0.00 | 0.00 | 0.00 | 37 | 1002.8 |
| 20260505201703 | 83 | 226 | 4.0 | 8.0 | 0.00 | 0.00 | 0.00 | 37 | 1002.9 |
| 20260505201204 | 83 | 285 | 4.0 | 6.0 | 0.00 | 0.00 | 0.00 | 38 | 1003.0 |
| 20260505200704 | 83 | 257 | 5.0 | 8.0 | 0.00 | 0.00 | 0.00 | 38 | 1003.1 |
| 20260505200203 | 84 | 247 | 5.0 | 8.0 | 0.00 | 0.00 | 0.00 | 36 | 1003.1 |
| 20260505195203 | 84 | 213 | 5.0 | 8.0 | 0.00 | 0.00 | 0.00 | 34 | 1003.1 |
| 20260505194203 | 86 | 233 | 3.0 | 8.0 | 0.00 | 0.00 | 0.00 | 29 | 1003.1 |
| 20260505193704 | 86 | 249 | 5.0 | 12.0 | 0.00 | 0.00 | 0.00 | 31 | 1003.1 |
| 20260505193203 | 87 | 239 | 1.0 | 6.0 | 0.00 | 0.00 | 0.00 | 31 | 1003.0 |
| 20260505192204 | 86 | 251 | 5.0 | 10.0 | 0.00 | 0.00 | 0.00 | 29 | 1003.2 |
| 20260505191703 | 85 | 317 | 5.0 | 13.0 | 0.00 | 0.00 | 0.00 | 28 | 1003.2 |
| 20260505191204 | 86 | 257 | 3.0 | 10.0 | 0.00 | 0.00 | 0.00 | 28 | 1003.2 |
| 20260505190704 | 85 | 238 | 6.0 | 9.0 | 0.00 | 0.00 | 0.00 | 30 | 1003.2 |
| 20260505190205 | 84 | 246 | 4.0 | 9.0 | 0.00 | 0.00 | 0.00 | 31 | 1003.3 |
| 20260505185704 | 82 | 270 | 5.0 | 10.0 | 0.00 | 0.00 | 0.00 | 31 | 1003.5 |
| 20260505185203 | 83 | 230 | 4.0 | 8.0 | 0.00 | 0.00 | 0.00 | 32 | 1003.5 |
| 20260505184704 | 83 | 274 | 6.0 | 17.0 | 0.00 | 0.00 | 0.00 | 30 | 1003.8 |
| 20260505183704 | 83 | 258 | 6.0 | 12.0 | 0.00 | 0.00 | 0.00 | 31 | 1003.7 |
| 20260505183204 | 84 | 285 | 5.0 | 12.0 | 0.00 | 0.00 | 0.00 | 29 | 1003.7 |
| 20260505182204 | 83 | 353 | 5.0 | 10.0 | 0.00 | 0.00 | 0.00 | 33 | 1003.9 |
| 20260505181704 | 82 | 315 | 3.0 | 8.0 | 0.00 | 0.00 | 0.00 | 35 | 1004.0 |
| 20260505181203 | 81 | 285 | 4.0 | 8.0 | 0.00 | 0.00 | 0.00 | 39 | 1004.0 |
| 20260505180704 | 81 | 231 | 3.0 | 9.0 | 0.00 | 0.00 | 0.00 | 36 | 1003.9 |
| 20260505180203 | 80 | 206 | 5.0 | 10.0 | 0.00 | 0.00 | 0.00 | 40 | 1004.0 |